Location: El Álamo
(40.2307°N, 3.9945°W)
Time: 16:20:55
(UTC+00:00)

Resurs 01 Rocket - Pass Details

Date: 19 May 2025
Orbit: 628 x 637 km, 97.7° (Epoch: 22 June)

Event Time Altitude Azimuth Distance (km) Brightness Sun altitude
Rises 20:45:59 0° 205° (SSW) 2,912 4.8 -13.0°
Reaches altitude 10° 20:48:49 10° 225° (SW) 2,008 4.2 -13.4°
Maximum altitude 20:51:46 18° 267° (W) 1,571 4.2 -13.8°
Drops below altitude 10° 20:54:43 10° 310° (NW) 2,015 5.6 -14.2°
Sets 20:57:35 0° 330° (NNW) 2,927 6.6 -14.6°
